Volver al catálogo

ATLAS 5 CENTAUR DEB

LostHEO
NORAD 44695·DEBRIS·🇺🇸 United States

Lanzado Oct 17, 2018 desde Cape Canaveral Space Force Station

Loading…

Próximos Pases (próximas 24 horas)

TLE

ObsoletoSource: Space-Track

Época: Nov 4, 2019, 01:08 UTC

1 44695U 18079BH  19308.04770846 -.00000083  00000-0  00000+0 0  9991
2 44695  11.6228 254.4649 4497117 256.6279  51.0023  1.73139357  3681

Sigue ATLAS 5 CENTAUR DEB en tiempo real con AllMySat

Download on the App Store